Location: Unspecified
(51.5147°N, 7.4673°E)
Time: 05:56:03
(UTC+01:00)

A-11 Canister half - Pass Details

Date: 24 February 2026
Orbit: 1524 x 1683 km, 47.3° (Epoch: 14 March)

Event Time Altitude Azimuth Distance (km) Brightness Sun altitude
Rises 20:01:40 0° 281° (W) 4,696 13.2 -19.4°
Reaches altitude 10° 20:04:48 10° 277° (W) 3,702 12.2 -19.9°
Maximum altitude 20:13:42 53° 204° (SSW) 1,822 9.4 -21.2°
Enters shadow 20:19:17 24° 140° (SE) 2,733 9.9 -22.1°
